Location: Assel
(52.1999°N, 5.8367°E)
Time: 22:50:06
(UTC+00:00)

Daily predictions for brighter satellites

Satellite Brightness Start Highest point End
(mag) Time Altitude Azimuth Time Altitude Azimuth Time Altitude Azimuth
Cosmos 1459 Rocket 4.2 20:35:40 10° N 20:41:59 67° ENE 20:48:18 10° SSE
Cosmos 1802 Rocket 4.3 20:40:31 10° N 20:46:53 58° ENE 20:53:12 10° SSE
Meteor 1-15 Rocket 4.4 20:41:17 10° N 20:46:54 61° ENE 20:52:24 10° SSE
Cosmos 1666 Rocket 4.1 20:44:18 10° NNW 20:48:43 61° W 20:53:05 10° S
Meteor 2-10 Rocket 4.1 20:43:04 10° NNW 20:48:47 67° W 20:54:17 10° S
USA 305 3.3 20:48:02 10° SSW 20:51:25 29° SE 20:54:25 10° E
Cosmos 1953 3.7 20:49:34 10° NNE 20:52:38 23° ENE 20:55:40 10° ESE
Okean-O 4.0 20:52:59 10° SSW 20:57:02 36° W 21:01:07 10° NNW
Cosmos 1633 Rocket 3.6 20:54:35 10° NNW 20:58:50 58° W 21:03:04 10° S
Meteor 1-22 Rocket 4.2 20:53:43 10° NNW 20:59:05 85° E 21:04:34 10° SSE
Lacrosse 4 Rocket 1.6 20:55:34 10° NW 20:59:45 71° WSW 21:03:58 10° SSE
NOSS 3-4 (A) 3.2 20:57:25 10° SW 21:02:49 84° SE 21:08:54 10° NE
NOSS 3-4 (C) 3.2 20:57:31 10° SW 21:02:55 83° SE 21:08:59 10° NE
Cosmos 1818 3.6 21:00:40 10° SSW 21:06:00 61° SE 21:11:24 10° NE
Cosmos 2016 Rocket 4.2 20:59:47 10° N 21:06:06 66° ENE 21:12:26 10° SSE
Cosmos 1455 3.2 21:07:30 10° NNW 21:09:53 27° W 21:12:16 10° SSW
Cosmos 1328 Rocket 4.2 21:09:28 10° SSW 21:13:46 57° WNW 21:18:09 10° N
USA 59 Rocket 2.0 21:12:57 10° NNW 21:15:09 17° NNE 21:17:37 10° ENE
Cosmos 614 Rocket 4.2 21:10:26 10° SSW 21:15:37 78° WNW 21:20:47 10° NNE
Ariane Rocket 3.2 21:10:36 10° S 21:15:40 70° WSW 21:20:46 10° NNW
Cosmos 2297 Rocket 2.7 21:10:04 10° SW 21:15:42 65° NW 21:21:22 10° NNE
Cosmos 1470 Rocket 4.1 21:15:09 10° NNW 21:19:23 55° W 21:23:37 10° S
GP-B 3.6 21:15:51 10° NNE 21:20:05 45° E 21:23:59 12° SSE
SPOT 3 Rocket 4.0 21:15:22 10° S 21:20:26 60° WSW 21:25:34 10° NNW
Cosmos 1758 4.1 21:18:30 10° NNW 21:22:04 44° W 21:25:37 10° SSW
Cosmos 2084 Rocket 3.8 21:21:34 10° NW 21:25:37 50° SW 21:29:07 13° SSE
Meteor 1-12 Rocket 4.4 21:20:03 10° N 21:25:56 75° ENE 21:31:34 12° SSE
ATLAS CENTAUR R/B 2.6 21:24:36 10° WNW 21:27:54 28° WSW 21:31:05 10° S
Meteor 1-13 Rocket 4.5 21:24:07 10° SSW 21:30:03 81° WNW 21:35:57 10° NNE
Cosmos 1933 Rocket 3.6 21:26:08 10° NNW 21:30:34 85° W 21:34:40 11° S
SL-16 R/B 2.4 21:30:58 10° NW 21:36:36 68° WSW 21:41:38 13° SSE
NOSS 3 (A) 4.2 21:34:58 10° NW 21:37:21 72° SW 21:39:33 16° SE
Terra 4.1 21:36:28 10° SW 21:39:48 19° W 21:43:08 10° NW
Cosmos 1515 Rocket 3.9 21:36:09 10° SSW 21:40:33 68° WNW 21:45:00 10° N
Cosmos 2344 4.1 21:32:50 10° NW 21:40:34 75° NE 21:50:52 10° SE
ALOS 2 4.4 21:37:41 10° ESE 21:41:02 22° ENE 21:44:24 10° N
DELTA 2 DEB (DPAF) 4.2 21:37:33 10° NNE 21:41:20 47° E 21:44:30 14° S
Cosmos 1733 Rocket 4.0 21:37:30 10° N 21:41:36 37° ENE 21:45:01 14° SE
Meteor 1-23 Rocket 4.2 21:36:17 10° S 21:41:51 82° E 21:47:30 10° NNE
Cosmos 2233 Rocket 4.1 21:37:29 10° N 21:43:51 85° E 21:49:37 13° S
Cosmos 2227 Rocket 2.4 21:38:33 10° SW 21:44:12 78° WNW 21:49:54 10° NNE
COSMOS 2455 4.3 21:39:49 10° NW 21:44:47 27° WSW 21:49:45 10° SSW
Cosmos 1869 Rocket 3.5 21:40:27 10° N 21:44:52 90° NNW 21:48:34 14° S
RESURS DK-1 2.2 21:41:13 10° SSW 21:45:14 83° ESE 21:49:16 10° NE
Meteor 1-16 Rocket 4.3 21:41:17 10° NNW 21:47:05 87° ENE 21:52:16 14° SSE
Meteor 1-21 4.3 21:42:21 10° S 21:48:01 75° E 21:53:49 10° NNE
Cosmos 2263 Rocket 2.2 21:43:08 10° SSW 21:48:45 66° ESE 21:54:25 10° NE
Okean 2 3.8 21:50:02 16° SSE 21:52:47 42° E 21:56:30 10° NNE
Okean 3 3.9 21:50:58 16° SSE 21:53:56 44° E 21:57:50 10° NNE
Aureole 3 Rocket 4.0 21:52:17 10° NNE 21:54:54 24° ENE 21:57:13 13° ESE
Cosmos 1725 Rocket 4.5 21:49:30 10° NNW 21:55:40 59° W 22:01:50 10° S
Cosmos 1943 3.3 21:52:29 10° NNW 21:58:13 74° ENE 22:03:04 15° SE
ASTEX 1 4.0 21:54:00 10° NNE 21:58:46 44° E 22:02:22 16° SSE
Cosmos 1437 Rocket 3.5 21:56:27 10° SSW 21:59:51 45° WNW 22:03:20 10° N
SeaSat 1 4.0 21:59:23 10° ESE 22:03:37 30° NE 22:07:53 10° NNW
Geosat 4.0 22:02:51 10° NNE 22:07:55 87° SE 22:12:55 10° SSW
Cosmos 1763 Rocket 3.8 22:03:07 10° NNW 22:08:15 60° ENE 22:12:24 15° SE
Cosmos 2219 3.2 22:03:52 10° SSW 22:09:36 80° ESE 22:15:24 10° NNE
COBE Rocket 4.1 22:05:06 10° N 22:10:12 78° WNW 22:15:09 10° SSW
MetOp-A 3.9 22:10:28 17° SSE 22:14:06 71° ENE 22:18:34 10° N
Cosmos 1862 Rocket 4.1 22:11:29 18° SSE 22:14:26 45° E 22:18:39 10° NNE
Cosmos 1603 4.1 22:10:09 10° NNW 22:15:42 58° NE 22:20:41 13° SE
USA 290 2.1 22:14:12 14° SSW 22:16:51 89° SSE 22:20:05 10° NNE
Meteor 2-16 Rocket 4.5 22:12:54 11° S 22:18:45 85° W 22:24:53 10° N
Cosmos 2082 3.7 22:13:23 10° SSW 22:19:04 74° ESE 22:24:49 10° NNE
Cosmos 2292 Rocket 2.6 22:18:12 24° S 22:19:46 61° E 22:22:39 10° NNE
USA 305 2.1 22:16:10 10° WSW 22:19:53 89° NNW 22:22:49 10° ENE
SWAS 4.3 22:17:55 10° NNW 22:22:01 85° WSW 22:24:44 20° SSE
Okean 1-7 3.8 22:19:41 19° SSE 22:22:05 36° E 22:25:53 10° NNE
ARIANE 5 R/B 2.6 22:20:49 19° SSE 22:23:58 82° ENE 22:28:28 10° NNW
Cosmos 546 4.5 22:21:04 10° WSW 22:24:51 67° S 22:28:39 10° E
SL-4 R/B 2.7 22:22:08 10° SSW 22:25:47 31° SSE 22:29:22 10° E
Cosmos 1953 3.4 22:24:33 10° NNW 22:27:59 35° W 22:30:44 14° SSW
Cosmos 1140 Rocket 3.4 22:26:49 12° SSW 22:31:41 86° ESE 22:36:50 10° NNE
NOSS 2-1 (C) 4.2 22:30:52 10° NW 22:33:59 40° NE 22:37:53 10° ESE
Spot 4 3.9 22:30:33 19° SSE 22:33:59 76° ENE 22:38:50 10° NNW
NOSS 3-1 (C) 4.0 22:29:08 10° NW 22:36:05 74° SW 22:43:28 15° SSE
Lacrosse 4 Rocket 3.9 22:36:07 10° W 22:36:55 10° WSW 22:37:43 10° WSW
Cosmos 1703 2.9 22:34:57 22° S 22:37:05 89° E 22:40:36 10° N
NOSS 2-1 (E) 4.3 22:34:25 10° NW 22:37:33 40° NE 22:41:28 10° ESE
Cosmos 1072 Rocket 4.5 22:34:31 10° N 22:40:43 79° ENE 22:45:16 19° SSE
SJ 16-02 3.5 22:38:57 11° ESE 22:40:45 13° E 22:42:46 10° ENE
Cosmos 1892 1.9 22:43:00 28° S 22:44:27 86° ESE 22:47:29 10° NNE
CZ-4C R/B 3.5 22:47:12 10° N 22:50:22 49° WNW 22:52:42 16° SW
DNEPR-1 R/B 4.4 22:46:52 10° SW 22:52:30 63° NW 22:57:14 10° NE
USA 307 3.9 22:54:11 21° SE 22:54:13 21° SE 22:57:14 10° E
Cosmos 407 Rocket 3.4 22:50:55 17° SSW 22:54:52 78° ESE 23:00:00 10° NNE
Cosmos 2228 Rocket 3.2 22:54:32 19° SSW 22:57:42 78° WNW 23:02:09 10° N
Cosmos 1844 Rocket 3.0 22:54:47 20° S 22:58:34 52° ESE 23:04:04 10° NE
USA 234 4.4 22:56:16 10° ENE 23:01:15 23° SE 23:03:50 18° SSE
OPS 6432 4.2 22:58:18 10° NW 23:01:42 85° NE 23:03:35 22° SE
Cosmos 1703 Rocket 4.1 22:59:24 22° SSE 23:01:47 44° E 23:05:54 10° NNE
Cosmos 2251 Rocket 3.7 22:59:04 20° S 23:02:41 61° ESE 23:07:59 10° NNE
Cosmos 1844 4.0 22:59:50 21° S 23:03:23 49° ESE 23:08:44 10° NE
USA 59 Rocket -0.2 23:01:11 10° NW 23:04:34 72° NE 23:08:26 13° SE
Landsat 5 3.5 23:02:50 10° NNE 23:07:09 82° WNW 23:09:56 21° SSW
Cosmos 1707 Rocket 4.0 23:05:01 17° SSW 23:08:12 55° WNW 23:12:26 10° N
ATLAS 3B R/B 3.8 23:02:56 10° NW 23:10:40 54° NNE 23:18:15 10° ESE
Cosmos 1954 Rocket 4.5 23:07:46 22° SSE 23:10:51 45° ESE 23:15:47 10° NE
Cosmos 540 Rocket 3.7 23:06:21 10° NNW 23:11:22 57° WSW 23:14:32 22° S
Cosmos 1190 Rocket 4.2 23:12:32 21° S 23:15:57 61° ESE 23:21:10 10° NNE
Tsikada Rocket 4.5 23:12:12 19° SSE 23:16:29 50° E 23:22:30 10° NNE
ALOS 2 2.9 23:14:27 23° S 23:17:02 57° W 23:21:23 10° NNW
Meteor 1-24 Rocket 4.3 23:13:40 20° SSE 23:17:41 53° E 23:23:24 10° NNE
Cosmos 1733 Rocket 4.5 23:15:24 10° NNW 23:19:09 28° W 23:21:59 15° SW
SL-16 R/B 4.4 23:17:15 10° WNW 23:19:37 13° W 23:21:59 10° WSW
Cosmos 1606 3.9 23:19:01 10° NNE 23:21:37 25° ENE 23:23:21 15° ESE
Cosmos 468 Rocket 4.1 23:17:07 10° NNW 23:22:14 64° WSW 23:25:26 22° S
Cosmos 841 Rocket 3.6 23:18:14 10° NNW 23:23:31 73° ENE 23:27:33 17° SE
NOSS 3-1 (A) 4.0 23:17:27 10° NW 23:24:26 74° SW 23:32:25 12° SSE
Spot 1 4.4 23:20:21 10° NNE 23:25:18 79° ESE 23:28:37 22° S
Cosmos 1464 Rocket 4.3 23:20:27 10° NNW 23:26:36 57° W 23:31:00 19° SSW
BREEZE-M DEB (TANK) 4.5 23:28:11 21° S 23:28:50 22° SSE 23:31:42 10° ESE
ATLAS 2AS CENTAUR R/B 3.4 23:25:05 20° S 23:29:26 39° ESE 23:35:47 10° NE
Meteor 2-5 Rocket 4.1 23:27:46 21° S 23:31:46 62° E 23:37:39 10° NNE
Cosmos 2263 Rocket 3.9 23:28:03 10° WSW 23:33:07 32° NW 23:38:13 10° NNE
Cosmos 2034 Rocket 4.1 23:27:22 10° NNW 23:33:34 73° W 23:37:59 21° S
H-2A R/B 4.0 23:31:20 10° ESE 23:34:22 26° ENE 23:37:26 10° N
Cosmos 1833 Rocket 3.4 23:32:12 10° NNW 23:37:42 51° NE 23:43:09 10° SE
Cosmos 1908 Rocket 4.0 23:35:20 10° NNW 23:39:34 50° W 23:42:02 23° SSW
SeaSat 1 2.5 23:37:33 21° SSE 23:40:44 64° WSW 23:45:39 10° NW
Aureole 3 Rocket 4.3 23:39:24 10° NW 23:41:48 20° W 23:43:25 15° SW
USA 305 2.7 23:45:24 10° W 23:48:35 49° N 23:50:53 10° ENE
Cosmos 1271 Rocket 3.3 23:50:19 20° SW 23:52:27 44° WNW 23:55:57 10° N
CZ-2C R/B 4.3 23:49:03 10° NNE 23:53:55 32° E 23:57:35 15° SSE
NOSS 2-1 (D) 3.6 23:51:30 10° NW 23:54:52 48° SW 23:57:18 22° SSE
